Regional Weather Roundup
Issued by NWS

Home | Current Version | Previous Version | Text Only | Print | Product List | Glossary On
Versions: 1 2 3 4 5 6 7 8 9 10 11 12 13 14 15 16 17 18 19 20 21 22 23 24 25 26 27 28 29 30 31 32 33 34 35 36 37 38 39 40 41 42 43 44 45 46 47 48 49 50
000
ASUS42 KFFC 131603
RWRGA
WEATHER ROUNDUP FOR GEORGIA
NATIONAL WEATHER SERVICE PEACHTREE CITY GA
1100 AM EST SAT FEB 13 2016

NOTE: "FAIR" INDICATES FEW OR NO CLOUDS BELOW 12,000 FEET WITH NO
SIGNIFICANT WEATHER AND/OR OBSTRUCTIONS TO VISIBILITY.

* = USE WITH CAUTION. THE STATIONS MARKED WITH AN ASTERISK MAY NOT
REPORT WEATHER SUCH AS PRECIPITATION, FOG, OR THUNDER AND ARE NOT
QUALITY CONTROLLED BY NWS.

THE REMARK "TC" DENOTES TEMPERATURE READING IN DEGREES CELSIUS.

GAZ001>058-131700-
NORTH GEORGIA

CITY           SKY/WX    TMP DP  RH WIND       PRES   REMARKS
ATLANTA        SUNNY     35   7  31 N18G26    30.38R WCI  24
ATHENS         SUNNY     41   8  25 NW13      30.32R
CHAMBLEE       SUNNY     34   9  35 NW15G21   30.37R WCI  24
PEACHTREE CITY SUNNY     36   8  31 NW15      30.40R WCI  27
ROME           SUNNY     33   9  36 N14G23    30.44R WCI  23
WEST ATLANTA   SUNNY     34   6  31 N13G24    30.39R WCI  25
GAINESVILLE    SUNNY     35   4  27 N15G22    30.33R WCI  25
CARTERSVILLE   SUNNY     32   7  35 N16G23    30.43R WCI  21


CITY           SKY/WX    TMP DP  RH WIND       PRES   REMARKS
DALTON*        SUNNY     32  12  43 NW16G22   30.44R WCI  21
LAWRENCEVILLE* SUNNY     36   9  32 W12       30.33R WCI  27
MARIETTA       SUNNY     33   6  32 NW13      30.37R WCI  23
KENNESAW*      SUNNY     30   7  37 NW16G24   30.39R WCI  19
BLAIRSVILLE*     N/A     28 -24   9 NW9       30.31R WCI  19
$$

GAZ059>098-102>109-131700-
CENTRAL GEORGIA

CITY           SKY/WX    TMP DP  RH WIND       PRES   REMARKS
AUGUSTA-BUSH   SUNNY     44  19  36 N8        30.32S
AUGUSTA-DANIEL SUNNY     42  18  37 NW8       30.31S
COLUMBUS       SUNNY     41  10  28 N13       30.42R
MACON          SUNNY     43  13  29 N13       30.37R


CITY           SKY/WX    TMP DP  RH WIND       PRES   REMARKS
LAGRANGE*      SUNNY     42  20  42 NW12      30.41R
SYLVANIA*      SUNNY     45  29  54 N5        30.31F
MILLEDGEVILLE* SUNNY     43  14  31 NW10      30.35R
$$

GAZ099>101-110>166-131700-
SOUTH GEORGIA

CITY           SKY/WX    TMP DP  RH WIND       PRES   REMARKS
SAVANNAH       MOSUNNY   47  26  44 NW10      30.30S
VALDOSTA       SUNNY     52  20  28 N14G22    30.34S
ALMA           SUNNY     48  23  37 NW9       30.32S
ST SIMONS      SUNNY     50  24  36 NW9       30.29S
FT STEWART     SUNNY     48  24  39 NW10G21   30.29R
ALBANY         SUNNY     47  14  26 N9G18     30.41R
HUNTER AFB     SUNNY     48  28  46 NW10      30.28R
MOODY AFB      SUNNY     51  20  30 NW10      30.33S
BRUNSWICK      SUNNY     52  28  40 NW10G17   30.30S


CITY           SKY/WX    TMP DP  RH WIND       PRES   REMARKS
BAINBRIDGE*    SUNNY     52  21  30 N13       30.40R
MOULTRIE*      SUNNY     48  19  32 N12G21    30.37R
VIDALIA*       SUNNY     46  21  36 NW8       30.32S
WAYCROSS*      SUNNY     54  28  37 N13G18    30.32S
DOUGLAS*       SUNNY     50  18  27 N12G17    30.35S
$$



USA.gov is the U.S. government's official web portal to all federal, state and local government web resources and services.